"startDT [UTC]","vpos","CH4 [ppm]","stdev(CH4) [ppm]","CO2 [ppm]","stdev(CO2) [ppm]","H2O [ppm]","stdev(H2O)","p_LGR [torr]","T_LGR [C]","mt1_LGR [us]","mt2_LGR [us]","T_ECpre [C]","T_EC1 [C]","T_EC2 [C]","p_inlet [hPa]","p_in [hPa]","p_out [hPa]","T_inlet [C]","RH_inlet [%]","dwpt_inlet [C]","T_vent [C]","RH_vent [%]","dwpt_vent [C]","flow_vent [l min-1]","flow_inlet [l min-1]","dwpt_sample [C]","T_room [C]"
2012-12-31 00:00:00,0.0,1.9155,0.0009,402.12,0.47,4.1,12.0,138.05,31.31,24.65,36.42,0.04,-272.75,-272.75,-46,560,-954,25.6,1.5,-30.1,25.7,1.6,-29.6,5.73,2.44,-28.3,30.7
2012-12-31 00:01:00,0.0,1.9163,0.0010,402.18,0.42,3.0,10.3,138.05,31.31,24.65,36.41,0.04,-272.74,-272.75,-46,560,-954,25.6,1.5,-30.0,25.7,1.6,-29.6,5.73,2.44,-28.3,30.7
2012-12-31 00:02:00,0.0,1.9164,0.0011,402.21,0.41,2.3,8.6,138.05,31.31,24.66,36.42,0.04,-272.75,-272.75,-46,560,-954,25.6,1.6,-29.9,25.7,1.6,-29.6,5.73,2.44,-28.3,30.7
2012-12-31 00:03:00,0.0,1.9175,0.0010,402.32,0.42,0.7,5.0,138.05,31.31,24.65,36.41,0.04,-272.75,-272.75,-46,560,-954,25.6,1.6,-29.9,25.7,1.6,-29.6,5.73,2.44,-28.3,30.7
2012-12-31 00:04:00,0.0,1.9180,0.0008,402.27,0.47,2.4,8.0,138.05,31.31,24.65,36.41,0.04,-272.75,-272.75,-46,560,-954,25.6,1.6,-29.9,25.7,1.6,-29.4,5.73,2.43,-28.3,30.7
2012-12-31 00:05:00,0.0,1.9189,0.0011,402.27,0.43,6.2,13.3,138.05,31.31,24.65,36.41,0.04,-272.75,-272.75,-46,560,-954,25.6,1.6,-29.9,25.7,1.6,-29.4,5.73,2.43,-28.2,30.7
2012-12-31 00:06:00,0.0,1.9160,0.0023,402.23,0.46,3.4,10.4,138.05,31.31,24.65,36.42,0.04,-272.75,-272.75,-46,560,-954,25.6,1.6,-29.8,25.7,1.6,-29.4,5.73,2.43,-28.2,30.6
2012-12-31 00:07:00,0.0,1.9138,0.0018,402.19,0.37,3.7,10.7,138.05,31.31,24.65,36.40,0.04,-272.75,-272.75,-46,560,-954,25.6,1.6,-29.7,25.7,1.6,-29.4,5.73,2.43,-28.2,30.7
2012-12-31 00:08:00,0.0,1.9123,0.0009,402.09,0.48,2.8,10.2,138.05,31.31,24.65,36.41,0.04,-272.75,-272.75,-46,560,-954,25.6,1.6,-29.7,25.7,1.6,-29.2,5.73,2.42,-28.2,30.7
2012-12-31 00:09:00,0.0,1.9127,0.0009,401.98,0.32,2.2,10.2,138.05,31.31,24.65,36.42,0.04,-272.75,-272.75,-46,560,-954,25.6,1.6,-29.5,25.7,1.6,-29.2,5.73,2.42,-28.2,30.6
2012-12-31 00:10:00,0.0,1.9164,0.0013,402.27,0.46,1.1,6.6,138.05,31.31,24.65,36.40,0.04,-272.75,-272.75,-46,560,-954,25.6,1.6,-29.5,25.7,1.6,-29.3,5.73,2.42,-28.2,30.7
2012-12-31 00:11:00,0.0,1.9152,0.0012,402.28,0.37,4.7,10.3,138.05,31.31,24.65,36.40,0.04,-272.75,-272.75,-46,560,-954,25.6,1.6,-29.5,25.7,1.6,-29.2,5.73,2.43,-28.2,30.7
2012-12-31 00:12:00,0.0,1.9135,0.0010,402.11,0.47,4.5,9.8,138.05,31.31,24.65,36.41,0.04,-272.75,-272.75,-46,560,-954,25.6,1.6,-29.5,25.7,1.7,-29.1,5.73,2.42,-28.2,30.7
2012-12-31 00:13:00,0.0,1.9135,0.0010,402.08,0.43,8.4,17.6,138.05,31.30,24.65,36.41,0.04,-272.75,-272.75,-46,560,-954,25.6,1.6,-29.4,25.7,1.7,-29.0,5.73,2.42,-28.2,30.6
2012-12-31 00:14:00,0.0,1.9134,0.0010,402.06,0.49,4.6,12.8,138.05,31.30,24.65,36.41,0.04,-272.75,-272.75,-46,560,-954,25.6,1.7,-29.3,25.7,1.7,-28.9,5.73,2.43,-28.2,30.7
2012-12-31 00:15:00,0.0,1.9126,0.0012,402.03,0.45,5.2,13.2,138.05,31.30,24.65,36.41,0.04,-272.75,-272.75,-46,560,-954,25.6,1.7,-29.1,25.7,1.7,-28.9,5.73,2.43,-28.2,30.7
2012-12-31 00:16:00,0.0,1.9110,0.0010,402.05,0.42,7.3,17.1,138.05,31.30,24.66,36.41,0.04,-272.75,-272.75,-46,560,-954,25.6,1.7,-29.2,25.7,1.7,-28.8,5.73,2.43,-28.2,30.7
2012-12-31 00:17:00,0.0,1.9115,0.0009,402.05,0.49,5.1,15.0,138.05,31.30,24.65,36.41,0.04,-272.75,-272.75,-46,560,-954,25.6,1.7,-29.0,25.7,1.7,-28.6,5.73,2.43,-28.2,30.7
2012-12-31 00:18:00,0.0,1.9119,0.0010,402.07,0.48,4.7,13.1,138.05,31.30,24.65,36.41,0.04,-272.75,-272.75,-46,560,-954,25.6,1.7,-28.9,25.7,1.8,-28.5,5.73,2.43,-28.2,30.7
2012-12-31 00:19:00,0.0,1.9120,0.0010,402.03,0.40,6.4,15.5,138.05,31.30,24.65,36.41,0.04,-272.75,-272.75,-46,560,-954,25.6,1.7,-28.7,25.7,1.8,-28.4,5.73,2.43,-28.1,30.7
2012-12-31 00:20:00,0.0,1.9119,0.0009,402.12,0.46,6.8,19.0,138.05,31.30,24.65,36.41,0.04,-272.75,-272.75,-46,560,-954,25.6,1.8,-28.6,25.7,1.8,-28.2,5.73,2.43,-28.1,30.7
2012-12-31 00:21:00,0.0,1.9118,0.0011,402.11,0.50,4.8,15.8,138.05,31.30,24.66,36.41,0.04,-272.75,-272.75,-46,560,-954,25.6,1.8,-28.5,25.7,1.8,-28.2,5.73,2.43,-28.1,30.7
2012-12-31 00:22:00,0.0,1.9125,0.0009,402.04,0.43,4.5,13.8,138.05,31.30,24.65,36.41,0.04,-272.75,-272.75,-46,560,-954,25.6,1.8,-28.5,25.7,1.8,-28.0,5.73,2.43,-28.1,30.7
2012-12-31 00:23:00,0.0,1.9124,0.0009,402.08,0.46,5.7,13.8,138.05,31.30,24.65,36.41,0.04,-272.75,-272.75,-46,560,-954,25.6,1.8,-28.4,25.7,1.8,-28.1,5.73,2.44,-28.1,30.7
2012-12-31 00:24:00,0.0,1.9120,0.0008,402.08,0.48,3.5,8.9,138.05,31.30,24.65,36.42,0.04,-272.75,-272.75,-46,560,-954,25.6,1.8,-28.3,25.7,1.8,-28.0,5.73,2.44,-28.1,30.7
2012-12-31 00:25:00,0.0,1.9123,0.0011,402.03,0.43,6.0,14.5,138.05,31.31,24.65,36.41,0.04,-272.75,-272.75,-46,560,-954,25.6,1.8,-28.2,25.7,1.9,-28.0,5.73,2.44,-28.1,30.7
2012-12-31 00:26:00,0.0,1.9122,0.0008,402.10,0.45,10.0,16.4,138.05,31.30,24.65,36.41,0.04,-272.75,-272.75,-46,560,-954,25.6,1.8,-28.3,25.7,1.9,-27.9,5.73,2.43,-28.1,30.7
2012-12-31 00:27:00,0.0,1.9112,0.0010,402.04,0.46,7.9,17.4,138.05,31.30,24.65,36.42,0.04,-272.75,-272.75,-46,560,-954,25.6,1.8,-28.3,25.7,1.9,-27.9,5.73,2.43,-28.1,30.7
2012-12-31 00:28:00,0.0,1.9111,0.0010,402.17,0.39,6.6,17.7,138.05,31.30,24.65,36.40,0.04,-272.75,-272.75,-46,560,-954,25.6,1.8,-28.3,25.7,1.9,-27.9,5.73,2.44,-28.1,30.7
2012-12-31 00:29:00,0.0,1.9110,0.0010,402.00,0.44,5.3,13.9,138.05,31.30,24.65,36.41,0.04,-272.75,-272.75,-46,560,-954,25.6,1.8,-28.2,25.7,1.9,-27.9,5.73,2.44,-28.1,30.7
2012-12-31 00:30:00,0.0,1.9124,0.0010,402.06,0.41,6.7,12.6,138.05,31.30,24.65,36.41,0.04,-272.75,-272.75,-46,560,-954,25.6,1.8,-28.1,25.7,1.9,-27.8,5.73,2.44,-28.1,30.7
2012-12-31 00:31:00,0.0,1.9126,0.0010,402.09,0.38,1.7,7.9,138.05,31.30,24.65,36.42,0.04,-272.75,-272.75,-46,560,-954,25.6,1.9,-28.0,25.7,1.9,-27.7,5.73,2.44,-28.1,30.7
2012-12-31 00:32:00,0.0,1.9119,0.0009,402.04,0.44,8.3,14.1,138.05,31.30,24.65,36.41,0.04,-272.75,-272.75,-46,560,-953,25.6,1.9,-27.9,25.7,1.9,-27.6,5.73,2.44,-28.1,30.7
2012-12-31 00:33:00,0.0,1.9129,0.0011,402.12,0.48,5.7,12.0,138.05,31.30,24.65,36.41,0.04,-272.75,-272.75,-46,560,-954,25.6,1.9,-27.8,25.7,1.9,-27.6,5.73,2.44,-28.0,30.7
2012-12-31 00:34:00,0.0,1.9133,0.0009,402.23,0.41,8.6,16.6,138.05,31.31,24.65,36.41,0.04,-272.75,-272.75,-46,560,-954,25.6,1.9,-27.8,25.7,1.9,-27.4,5.73,2.43,-28.0,30.7
2012-12-31 00:35:00,0.0,1.9138,0.0010,402.05,0.36,3.7,11.8,138.05,31.31,24.65,36.42,0.04,-272.75,-272.75,-46,560,-954,25.6,1.9,-27.6,25.7,1.9,-27.4,5.73,2.43,-28.0,30.7
2012-12-31 00:36:00,0.0,1.9139,0.0010,402.04,0.50,5.5,14.6,138.05,31.31,24.65,36.42,0.04,-272.75,-272.75,-46,560,-954,25.6,1.9,-27.6,25.7,1.9,-27.4,5.73,2.43,-28.0,30.7
2012-12-31 00:37:00,0.0,1.9143,0.0008,402.22,0.44,4.4,11.1,138.05,31.30,24.65,36.42,0.04,-272.75,-272.75,-46,560,-954,25.6,1.9,-27.7,25.7,1.9,-27.4,5.73,2.43,-28.0,30.7
2012-12-31 00:38:00,0.0,1.9129,0.0010,402.18,0.39,6.8,14.1,138.05,31.30,24.65,36.41,0.04,-272.74,-272.75,-46,560,-954,25.6,1.9,-27.8,25.7,2.0,-27.4,5.73,2.43,-28.0,30.7
2012-12-31 00:39:00,0.0,1.9128,0.0009,402.14,0.44,4.4,11.8,138.05,31.30,24.65,36.41,0.04,-272.75,-272.75,-46,560,-954,25.6,1.9,-27.8,25.7,1.9,-27.5,5.73,2.43,-28.0,30.7
2012-12-31 00:40:00,0.0,1.9128,0.0012,402.09,0.52,9.0,16.7,138.05,31.30,24.65,36.42,0.04,-272.75,-272.75,-46,560,-954,25.6,1.9,-27.8,25.7,1.9,-27.4,5.73,2.43,-28.0,30.7
2012-12-31 00:41:00,0.0,1.9128,0.0009,402.18,0.46,3.1,8.6,138.05,31.30,24.65,36.41,0.04,-272.74,-272.75,-46,560,-954,25.6,1.9,-27.8,25.7,1.9,-27.5,5.73,2.43,-28.0,30.7
2012-12-31 00:42:00,0.0,1.9128,0.0010,402.07,0.45,5.5,13.6,138.05,31.30,24.65,36.41,0.04,-272.74,-272.75,-46,560,-954,25.6,1.9,-27.8,25.7,1.9,-27.5,5.73,2.43,-28.0,30.7
2012-12-31 00:43:00,0.0,1.9124,0.0009,402.07,0.46,6.0,12.7,138.05,31.30,24.65,36.41,0.04,-272.75,-272.75,-46,560,-953,25.6,1.9,-27.8,25.7,1.9,-27.4,5.73,2.43,-28.0,30.7
2012-12-31 00:44:00,0.0,1.9128,0.0009,401.96,0.48,8.2,16.9,138.05,31.30,24.65,36.42,0.04,-272.75,-272.75,-46,560,-954,25.6,1.9,-27.8,25.7,1.9,-27.5,5.73,2.43,-27.9,30.7
2012-12-31 00:45:00,0.0,1.9127,0.0009,402.17,0.51,11.5,19.2,138.05,31.30,24.65,36.41,0.04,-272.75,-272.75,-46,560,-954,25.6,1.9,-27.8,25.7,1.9,-27.5,5.73,2.43,-27.9,30.7
2012-12-31 00:46:00,0.0,1.9126,0.0011,402.01,0.47,3.5,11.2,138.05,31.30,24.65,36.42,0.04,-272.75,-272.75,-46,560,-954,25.6,1.9,-27.8,25.7,1.9,-27.5,5.73,2.43,-27.9,30.7
2012-12-31 00:47:00,0.0,1.9125,0.0010,402.14,0.47,7.0,14.0,138.05,31.30,24.65,36.41,0.04,-272.75,-272.75,-46,560,-954,25.6,1.9,-27.8,25.7,1.9,-27.5,5.73,2.43,-27.9,30.7
2012-12-31 00:48:00,0.0,1.9129,0.0011,402.05,0.49,9.5,16.8,138.05,31.30,24.65,36.42,0.04,-272.75,-272.75,-46,560,-954,25.6,1.9,-27.8,25.7,1.9,-27.4,5.73,2.43,-27.9,30.7
2012-12-31 00:49:00,0.0,1.9132,0.0010,402.06,0.43,6.7,16.2,138.05,31.30,24.65,36.42,0.04,-272.75,-272.75,-46,560,-954,25.6,1.9,-27.7,25.7,1.9,-27.4,5.73,2.43,-27.9,30.7
2012-12-31 00:50:00,0.0,1.9129,0.0010,402.00,0.50,7.2,14.8,138.05,31.30,24.65,36.41,0.04,-272.75,-272.75,-46,560,-954,25.6,1.9,-27.6,25.7,2.0,-27.4,5.73,2.43,-27.9,30.7
2012-12-31 00:51:00,0.0,1.9131,0.0009,402.20,0.39,9.6,17.2,138.05,31.30,24.65,36.41,0.04,-272.74,-272.75,-46,560,-954,25.6,1.9,-27.7,25.7,2.0,-27.3,5.73,2.43,-27.9,30.7
2012-12-31 00:52:00,0.0,1.9130,0.0010,402.15,0.43,10.6,19.4,138.05,31.31,24.66,36.42,0.04,-272.74,-272.75,-46,560,-954,25.6,1.9,-27.6,25.7,2.0,-27.3,5.73,2.43,-27.9,30.7
2012-12-31 00:53:00,0.0,1.9139,0.0010,402.05,0.40,6.1,12.9,138.05,31.31,24.65,36.42,0.04,-272.75,-272.75,-46,560,-954,25.6,1.9,-27.7,25.7,1.9,-27.4,5.73,2.43,-27.9,30.7
2012-12-31 00:54:00,0.0,1.9134,0.0010,402.12,0.47,11.1,20.3,138.05,31.30,24.65,36.42,0.04,-272.75,-272.75,-46,560,-954,25.6,1.9,-27.6,25.7,1.9,-27.4,5.73,2.43,-27.9,30.7
2012-12-31 00:55:00,0.0,1.9138,0.0010,402.05,0.43,9.2,16.9,138.05,31.30,24.65,36.42,0.04,-272.75,-272.75,-46,560,-954,25.6,1.9,-27.7,25.7,1.9,-27.5,5.73,2.43,-27.8,30.7
2012-12-31 00:56:00,0.0,1.9125,0.0009,402.05,0.41,9.8,16.1,138.05,31.30,24.65,36.41,0.04,-272.75,-272.76,-46,560,-954,25.6,1.9,-27.6,25.7,2.0,-27.4,5.73,2.42,-27.8,30.7
2012-12-31 00:57:00,0.0,1.9129,0.0009,402.18,0.39,11.3,21.0,138.05,31.30,24.65,36.41,0.04,-272.75,-272.75,-46,560,-953,25.6,1.9,-27.6,25.7,1.9,-27.4,5.73,2.43,-27.8,30.7
2012-12-31 00:58:00,0.0,1.9131,0.0008,402.05,0.39,7.9,16.4,138.05,31.30,24.65,36.41,0.04,-272.75,-272.75,-46,560,-954,25.6,1.9,-27.6,25.7,2.0,-27.4,5.73,2.43,-27.8,30.7
2012-12-31 00:59:00,0.0,1.9131,0.0009,402.16,0.47,11.9,19.3,138.05,31.30,24.65,36.41,0.04,-272.74,-272.75,-46,560,-954,25.6,1.9,-27.6,25.7,1.9,-27.4,5.73,2.42,-27.8,30.7
2012-12-31 01:00:00,0.0,1.9127,0.0010,402.05,0.45,13.6,18.6,138.05,31.30,24.66,36.42,0.04,-272.75,-272.75,-46,560,-953,25.6,1.9,-27.6,25.7,2.0,-27.4,5.73,2.42,-27.8,30.7
2012-12-31 01:01:00,0.0,1.9129,0.0010,402.01,0.46,7.4,14.1,138.05,31.30,24.65,36.42,0.04,-272.75,-272.75,-46,560,-954,25.6,1.9,-27.6,25.7,2.0,-27.3,5.73,2.42,-27.7,30.7
2012-12-31 01:02:00,0.0,1.9130,0.0008,402.11,0.48,10.5,17.2,138.05,31.30,24.66,36.41,0.04,-272.75,-272.75,-46,560,-954,25.7,1.9,-27.6,25.7,2.0,-27.2,5.73,2.43,-27.7,30.7
2012-12-31 01:03:00,0.0,1.9132,0.0009,402.07,0.49,9.3,18.3,138.05,31.30,24.65,36.42,0.04,-272.75,-272.75,-46,560,-954,25.6,1.9,-27.6,25.7,2.0,-27.3,5.73,2.43,-27.7,30.7
2012-12-31 01:04:00,0.0,1.9130,0.0010,402.10,0.42,9.8,17.2,138.05,31.31,24.65,36.41,0.04,-272.75,-272.75,-46,560,-954,25.6,1.9,-27.7,25.7,2.0,-27.2,5.73,2.43,-27.7,30.7
2012-12-31 01:05:00,0.0,1.9128,0.0009,401.97,0.46,8.5,15.9,138.05,31.31,24.65,36.42,0.04,-272.74,-272.75,-46,560,-953,25.6,1.9,-27.6,25.7,2.0,-27.3,5.73,2.43,-27.7,30.7
2012-12-31 01:06:00,0.0,1.9122,0.0010,402.08,0.52,10.6,18.1,138.05,31.31,24.65,36.41,0.04,-272.75,-272.75,-46,560,-954,25.6,2.0,-27.4,25.7,2.0,-27.2,5.73,2.42,-27.7,30.7
2012-12-31 01:07:00,0.0,1.9116,0.0007,402.15,0.40,11.0,17.3,138.05,31.31,24.66,36.41,0.04,-272.75,-272.75,-46,560,-953,25.6,2.0,-27.4,25.8,2.0,-27.0,5.73,2.42,-27.7,30.7
2012-12-31 01:08:00,0.0,1.9112,0.0009,402.07,0.41,15.1,21.2,138.05,31.31,24.65,36.41,0.04,-272.75,-272.75,-46,560,-953,25.7,2.0,-27.2,25.7,2.0,-26.9,5.73,2.43,-27.7,30.7
2012-12-31 01:09:00,0.0,1.9112,0.0010,402.12,0.39,11.6,17.3,138.05,31.31,24.65,36.41,0.04,-272.74,-272.75,-46,560,-953,25.7,2.0,-27.0,25.7,2.1,-26.7,5.73,2.43,-27.6,30.7
2012-12-31 01:10:00,0.0,1.9110,0.0010,402.12,0.45,11.5,18.0,138.05,31.31,24.65,36.41,0.04,-272.75,-272.75,-46,560,-953,25.7,2.1,-26.9,25.7,2.1,-26.6,5.73,2.43,-27.6,30.7
2012-12-31 01:11:00,0.0,1.9110,0.0010,402.01,0.36,14.7,20.2,138.05,31.31,24.65,36.41,0.04,-272.75,-272.75,-46,560,-953,25.6,2.1,-26.9,25.8,2.1,-26.5,5.73,2.43,-27.6,30.7
2012-12-31 01:12:00,0.0,1.9114,0.0010,402.08,0.51,13.2,18.5,138.05,31.31,24.65,36.41,0.04,-272.75,-272.75,-46,560,-954,25.7,2.1,-26.7,25.8,2.1,-26.5,5.73,2.43,-27.6,30.7
2012-12-31 01:13:00,0.0,1.9111,0.0010,402.12,0.45,13.6,18.3,138.05,31.31,24.65,36.41,0.04,-272.75,-272.75,-46,560,-953,25.7,2.1,-26.7,25.8,2.1,-26.4,5.73,2.43,-27.6,30.8
2012-12-31 01:14:00,0.0,1.9115,0.0009,402.08,0.33,11.2,14.8,138.05,31.32,24.65,36.41,0.04,-272.75,-272.75,-46,560,-953,25.7,2.1,-26.7,25.8,2.1,-26.3,5.73,2.43,-27.6,30.8
2012-12-31 01:15:00,0.0,1.9120,0.0009,402.02,0.44,16.8,23.2,138.05,31.32,24.65,36.41,0.04,-272.75,-272.75,-46,560,-954,25.6,2.1,-26.7,25.8,2.1,-26.4,5.73,2.43,-27.6,30.7
2012-12-31 01:16:00,0.0,1.9117,0.0010,402.17,0.48,17.8,20.7,138.05,31.32,24.65,36.41,0.04,-272.75,-272.75,-46,560,-953,25.7,2.1,-26.7,25.8,2.1,-26.4,5.73,2.42,-27.6,30.7
2012-12-31 01:17:00,0.0,1.9117,0.0010,402.05,0.44,13.7,20.0,138.05,31.32,24.65,36.41,0.04,-272.75,-272.75,-46,560,-953,25.7,2.1,-26.7,25.8,2.1,-26.3,5.73,2.42,-27.6,30.8
2012-12-31 01:18:00,0.0,1.9119,0.0011,402.26,0.41,12.3,22.6,138.05,31.32,24.65,36.41,0.04,-272.75,-272.75,-46,560,-953,25.7,2.1,-26.7,25.8,2.1,-26.3,5.73,2.43,-27.6,30.7
2012-12-31 01:19:00,0.0,1.9112,0.0011,402.11,0.45,11.7,16.6,138.05,31.31,24.66,36.41,0.04,-272.75,-272.75,-46,560,-953,25.7,2.1,-26.5,25.8,2.2,-26.3,5.73,2.43,-27.5,30.7
2012-12-31 01:20:00,0.0,1.9114,0.0010,402.09,0.41,21.2,25.2,138.05,31.31,24.65,36.41,0.04,-272.75,-272.75,-46,560,-953,25.7,2.1,-26.6,25.8,2.2,-26.2,5.73,2.43,-27.5,30.7
2012-12-31 01:21:00,0.0,1.9111,0.0011,402.05,0.48,17.1,24.4,138.05,31.32,24.66,36.41,0.04,-272.75,-272.75,-46,560,-953,25.7,2.1,-26.5,25.8,2.2,-26.2,5.73,2.43,-27.5,30.7
2012-12-31 01:22:00,0.0,1.9111,0.0010,402.18,0.39,22.0,26.8,138.05,31.32,24.65,36.41,0.04,-272.74,-272.75,-46,560,-953,25.7,2.1,-26.6,25.8,2.2,-26.2,5.73,2.43,-27.5,30.7
2012-12-31 01:23:00,0.0,1.9112,0.0011,402.10,0.43,20.6,22.5,138.05,31.32,24.65,36.41,0.04,-272.75,-272.75,-46,560,-953,25.7,2.1,-26.6,25.8,2.2,-26.2,5.73,2.43,-27.5,30.8
2012-12-31 01:24:00,0.0,1.9106,0.0011,401.91,0.41,24.8,22.9,138.05,31.32,24.65,36.42,0.04,-272.75,-272.75,-46,560,-953,25.7,2.2,-26.4,25.8,2.2,-26.1,5.73,2.43,-27.5,30.8
2012-12-31 01:25:00,0.0,1.9112,0.0010,402.08,0.44,14.3,20.3,138.05,31.32,24.65,36.42,0.04,-272.75,-272.75,-46,560,-953,25.7,2.2,-26.3,25.8,2.2,-25.9,5.73,2.43,-27.5,30.8
2012-12-31 01:26:00,0.0,1.9118,0.0010,402.00,0.39,23.0,28.4,138.05,31.32,24.65,36.41,0.04,-272.75,-272.75,-46,560,-953,25.7,2.2,-26.3,25.8,2.2,-25.9,5.73,2.43,-27.4,30.8
2012-12-31 01:27:00,0.0,1.9111,0.0009,402.11,0.42,22.3,26.0,138.05,31.32,24.65,36.41,0.04,-272.75,-272.75,-46,560,-953,25.7,2.2,-26.3,25.8,2.2,-25.9,5.73,2.43,-27.4,30.7
2012-12-31 01:28:00,0.0,1.9114,0.0009,402.05,0.45,19.3,22.3,138.05,31.32,24.65,36.41,0.04,-272.75,-272.75,-46,560,-953,25.7,2.2,-26.2,25.8,2.2,-25.9,5.73,2.43,-27.4,30.7
2012-12-31 01:29:00,0.0,1.9115,0.0008,402.16,0.41,14.2,23.0,138.05,31.32,24.65,36.41,0.04,-272.75,-272.75,-46,560,-953,25.7,2.2,-26.3,25.8,2.2,-26.0,5.73,2.43,-27.4,30.7
2012-12-31 01:30:00,0.0,1.9116,0.0009,402.10,0.36,17.6,22.9,138.05,31.32,24.65,36.41,0.04,-272.75,-272.75,-46,560,-953,25.7,2.2,-26.4,25.8,2.2,-26.1,5.73,2.43,-27.4,30.7
2012-12-31 01:31:00,0.0,1.9113,0.0008,402.01,0.46,21.6,22.7,138.05,31.32,24.65,36.42,0.04,-272.75,-272.75,-46,560,-953,25.7,2.2,-26.4,25.8,2.2,-26.0,5.73,2.42,-27.4,30.7
2012-12-31 01:32:00,0.0,1.9112,0.0009,401.91,0.49,18.3,24.8,138.05,31.32,24.65,36.42,0.04,-272.74,-272.75,-46,560,-953,25.7,2.1,-26.5,25.8,2.2,-26.1,5.73,2.42,-27.4,30.7
2012-12-31 01:33:00,0.0,1.9136,0.0017,401.99,0.46,16.1,22.7,138.05,31.32,24.65,36.41,0.04,-272.75,-272.75,-46,560,-953,25.6,2.2,-26.4,25.8,2.2,-26.1,5.73,2.43,-27.5,30.7
2012-12-31 01:34:00,0.0,1.9150,0.0016,402.07,0.47,16.5,20.5,138.05,31.31,24.65,36.42,0.04,-272.75,-272.75,-46,560,-953,25.6,2.1,-26.5,25.7,2.2,-26.2,5.73,2.43,-27.5,30.6
2012-12-31 01:35:00,0.0,1.9148,0.0018,402.00,0.41,19.1,21.9,138.05,31.31,24.65,36.42,0.04,-272.74,-272.75,-46,560,-953,25.6,2.1,-26.6,25.7,2.2,-26.3,5.73,2.43,-27.5,30.6
2012-12-31 01:36:00,0.0,1.9132,0.0009,402.02,0.47,12.3,19.5,138.05,31.31,24.65,36.41,0.04,-272.75,-272.75,-46,560,-953,25.6,2.1,-26.6,25.7,2.2,-26.3,5.73,2.43,-27.5,30.6
2012-12-31 01:37:00,0.0,1.9143,0.0012,401.93,0.43,14.5,23.1,138.05,31.30,24.65,36.42,0.04,-272.75,-272.75,-46,560,-953,25.6,2.1,-26.6,25.7,2.2,-26.2,5.73,2.42,-27.6,30.5
2012-12-31 01:38:00,0.0,1.9135,0.0010,401.99,0.34,14.1,18.7,138.05,31.30,24.65,36.42,0.04,-272.75,-272.75,-46,560,-953,25.5,2.1,-26.7,25.7,2.2,-26.3,5.73,2.43,-27.5,30.5
2012-12-31 01:39:00,0.0,1.9124,0.0009,401.89,0.45,16.4,21.0,138.05,31.29,24.66,36.42,0.04,-272.75,-272.75,-46,560,-953,25.5,2.1,-26.7,25.7,2.2,-26.4,5.73,2.43,-27.6,30.4
2012-12-31 01:40:00,0.0,1.9126,0.0011,401.90,0.40,16.2,19.9,138.06,31.28,24.65,36.42,0.04,-272.75,-272.75,-46,560,-953,25.4,2.1,-26.7,25.7,2.1,-26.4,5.73,2.43,-27.6,30.4
2012-12-31 01:41:00,0.0,1.9127,0.0010,401.90,0.46,11.3,18.3,138.06,31.27,24.65,36.42,0.04,-272.75,-272.75,-46,560,-953,25.4,2.1,-26.7,25.7,2.2,-26.4,5.73,2.43,-27.6,30.4
2012-12-31 01:42:00,0.0,1.9128,0.0010,401.83,0.50,12.6,20.5,138.06,31.27,24.65,36.42,0.04,-272.75,-272.75,-46,560,-953,25.4,2.1,-26.8,25.6,2.1,-26.4,5.73,2.43,-27.6,30.4
2012-12-31 01:43:00,0.0,1.9131,0.0010,401.94,0.42,9.2,16.8,138.06,31.26,24.65,36.41,0.04,-272.75,-272.75,-45,560,-953,25.4,2.1,-26.8,25.6,2.1,-26.5,5.73,2.43,-27.6,30.4
2012-12-31 01:44:00,0.0,1.9131,0.0009,401.97,0.41,11.6,18.0,138.06,31.25,24.65,36.42,0.04,-272.75,-272.75,-46,560,-953,25.4,2.1,-26.7,25.6,2.1,-26.5,5.73,2.43,-27.6,30.4
2012-12-31 01:45:00,0.0,1.9132,0.0010,401.96,0.49,13.1,17.6,138.06,31.25,24.65,36.41,0.04,-272.75,-272.75,-46,559,-953,25.3,2.1,-26.7,25.6,2.2,-26.4,5.73,2.43,-27.6,30.4
2012-12-31 01:46:00,0.0,1.9127,0.0010,401.95,0.46,14.0,20.0,138.06,31.24,24.65,36.41,0.04,-272.75,-272.75,-46,559,-953,25.3,2.1,-26.8,25.6,2.2,-26.3,5.73,2.43,-27.6,30.4
2012-12-31 01:47:00,0.0,1.9129,0.0011,402.00,0.45,19.7,22.6,138.06,31.24,24.65,36.41,0.04,-272.75,-272.75,-46,559,-953,25.3,2.1,-26.8,25.5,2.2,-26.3,5.73,2.43,-27.6,30.4
2012-12-31 01:48:00,0.0,1.9128,0.0008,401.88,0.42,14.9,23.2,138.06,31.23,24.65,36.41,0.04,-272.75,-272.75,-46,559,-953,25.3,2.1,-26.8,25.5,2.2,-26.4,5.73,2.43,-27.6,30.4
2012-12-31 01:49:00,0.0,1.9137,0.0009,401.84,0.47,17.6,21.6,138.06,31.23,24.65,36.42,0.04,-272.74,-272.75,-46,559,-953,25.3,2.1,-26.8,25.5,2.2,-26.4,5.73,2.44,-27.6,30.4
2012-12-31 01:50:00,0.0,1.9133,0.0009,401.96,0.48,18.0,24.8,138.06,31.22,24.65,36.41,0.04,-272.75,-272.75,-46,559,-953,25.3,2.1,-26.8,25.5,2.1,-26.5,5.73,2.43,-27.6,30.3
2012-12-31 01:51:00,0.0,1.9136,0.0010,401.95,0.47,18.5,21.1,138.06,31.22,24.65,36.42,0.04,-272.75,-272.75,-46,559,-953,25.3,2.1,-26.8,25.5,2.1,-26.5,5.73,2.43,-27.5,30.3
2012-12-31 01:52:00,0.0,1.9134,0.0009,401.96,0.47,21.5,23.2,138.06,31.21,24.65,36.41,0.04,-272.75,-272.74,-45,559,-953,25.3,2.1,-26.9,25.5,2.2,-26.4,5.73,2.44,-27.5,30.3
2012-12-31 01:53:00,0.0,1.9132,0.0009,401.92,0.43,20.1,22.1,138.06,31.21,24.65,36.42,0.04,-272.75,-272.75,-45,559,-953,25.3,2.1,-26.7,25.5,2.2,-26.3,5.73,2.43,-27.5,30.4
2012-12-31 01:54:00,0.0,1.9122,0.0011,401.90,0.39,11.7,18.0,138.06,31.20,24.65,36.41,0.04,-272.75,-272.75,-45,559,-953,25.3,2.1,-26.6,25.5,2.2,-26.4,5.73,2.44,-27.5,30.3
2012-12-31 01:55:00,0.0,1.9112,0.0008,401.93,0.42,21.4,27.1,138.06,31.20,24.65,36.41,0.04,-272.75,-272.75,-45,559,-953,25.3,2.2,-26.6,25.5,2.2,-26.4,5.73,2.44,-27.5,30.3
2012-12-31 01:56:00,0.0,1.9110,0.0010,401.87,0.39,20.5,24.4,138.06,31.20,24.65,36.41,0.04,-272.75,-272.75,-46,559,-953,25.3,2.1,-26.7,25.5,2.2,-26.3,5.73,2.44,-27.5,30.4
2012-12-31 01:57:00,0.0,1.9110,0.0009,401.83,0.49,13.7,16.2,138.06,31.19,24.65,36.42,0.04,-272.75,-272.75,-46,559,-953,25.3,2.2,-26.6,25.5,2.2,-26.4,5.73,2.44,-27.5,30.4
2012-12-31 01:58:00,0.0,1.9111,0.0009,401.89,0.49,19.0,20.8,138.06,31.19,24.65,36.41,0.04,-272.75,-272.75,-46,559,-952,25.3,2.2,-26.7,25.5,2.2,-26.4,5.73,2.44,-27.4,30.4
2012-12-31 01:59:00,0.0,1.9106,0.0012,401.72,0.38,24.7,28.9,138.06,31.19,24.65,36.42,0.04,-272.74,-272.74,-46,559,-952,25.3,2.1,-26.7,25.5,2.2,-26.4,5.73,2.44,-27.4,30.4
2012-12-31 02:00:00,1.0,1.8900,0.0146,386.88,10.24,7.1,13.5,138.06,31.18,24.66,36.41,0.04,-272.75,-272.75,-46,616,-953,25.3,2.1,-26.7,25.5,2.2,-26.3,5.73,2.48,-27.4,30.4
2012-12-31 02:01:00,1.0,1.8739,0.0011,374.87,0.47,12.0,21.0,138.06,31.18,24.65,36.43,0.04,-272.75,-272.75,-45,613,-952,25.2,2.2,-26.5,25.5,2.2,-26.2,5.73,2.44,-27.4,30.4
2012-12-31 02:02:00,1.0,1.8738,0.0010,375.02,0.50,16.9,23.5,138.06,31.17,24.65,36.43,0.04,-272.75,-272.75,-45,612,-952,25.2,2.2,-26.5,25.5,2.2,-26.2,5.73,2.43,-27.4,30.4
2012-12-31 02:03:00,1.0,1.8735,0.0009,375.00,0.44,10.1,15.9,138.06,31.17,24.65,36.42,0.04,-272.75,-272.75,-45,612,-952,25.2,2.2,-26.5,25.5,2.2,-26.3,5.73,2.44,-27.4,30.4
2012-12-31 02:04:00,1.0,1.8738,0.0009,375.03,0.36,12.9,16.2,138.06,31.16,24.65,36.42,0.04,-272.75,-272.75,-45,612,-953,25.2,2.2,-26.4,25.5,2.2,-26.1,5.73,2.44,-27.4,30.4
2012-12-31 02:05:00,0.0,1.8934,0.0143,389.58,10.42,12.7,16.7,138.06,31.16,24.65,36.42,0.04,-272.74,-272.75,-45,558,-953,25.3,2.2,-26.5,25.5,2.2,-26.1,5.73,2.48,-27.4,30.4
2012-12-31 02:06:00,0.0,1.9094,0.0009,401.71,0.43,22.4,27.6,138.06,31.16,24.65,36.41,0.04,-272.75,-272.75,-45,558,-952,25.3,2.2,-26.4,25.5,2.3,-26.0,5.73,2.44,-27.4,30.4
2012-12-31 02:07:00,0.0,1.9096,0.0011,401.75,0.47,19.5,23.0,138.06,31.16,24.65,36.41,0.04,-272.75,-272.75,-45,559,-952,25.3,2.2,-26.3,25.5,2.3,-26.0,5.73,2.43,-27.3,30.4
2012-12-31 02:08:00,0.0,1.9093,0.0011,401.79,0.48,21.1,22.2,138.06,31.15,24.66,36.41,0.04,-272.75,-272.75,-45,558,-952,25.3,2.2,-26.3,25.5,2.3,-25.9,5.73,2.43,-27.3,30.4
2012-12-31 02:09:00,0.0,1.9099,0.0008,401.73,0.45,18.8,21.4,138.06,31.15,24.65,36.42,0.04,-272.75,-272.75,-45,558,-952,25.3,2.2,-26.2,25.5,2.3,-25.8,5.73,2.43,-27.3,30.4
2012-12-31 02:10:00,0.0,1.9099,0.0010,401.77,0.43,19.5,21.8,138.06,31.15,24.65,36.42,0.04,-272.75,-272.75,-45,559,-952,25.3,2.3,-26.1,25.5,2.3,-25.9,5.73,2.43,-27.3,30.4
2012-12-31 02:11:00,0.0,1.9091,0.0010,401.87,0.47,30.6,25.8,138.06,31.15,24.66,36.41,0.04,-272.75,-272.75,-46,559,-953,25.3,2.3,-26.1,25.5,2.3,-25.8,5.73,2.43,-27.3,30.4
2012-12-31 02:12:00,0.0,1.9093,0.0009,401.88,0.47,17.8,21.5,138.06,31.15,24.65,36.41,0.04,-272.75,-272.75,-46,559,-952,25.3,2.3,-26.0,25.5,2.3,-25.7,5.73,2.43,-27.3,30.4
2012-12-31 02:13:00,0.0,1.9094,0.0008,401.84,0.46,23.4,24.4,138.06,31.15,24.65,36.41,0.04,-272.75,-272.75,-46,558,-952,25.3,2.3,-26.0,25.5,2.3,-25.7,5.73,2.43,-27.3,30.4
2012-12-31 02:14:00,0.0,1.9095,0.0009,401.80,0.44,21.8,22.7,138.06,31.14,24.65,36.41,0.04,-272.75,-272.75,-46,559,-952,25.3,2.3,-25.9,25.5,2.3,-25.6,5.73,2.43,-27.3,30.4
2012-12-31 02:15:00,0.0,1.9093,0.0008,401.86,0.53,27.4,28.3,138.06,31.14,24.65,36.41,0.04,-272.75,-272.75,-46,559,-952,25.3,2.3,-26.0,25.5,2.3,-25.6,5.73,2.43,-27.3,30.4
2012-12-31 02:16:00,0.0,1.9089,0.0010,401.90,0.45,20.8,23.3,138.06,31.14,24.66,36.41,0.04,-272.75,-272.75,-46,559,-952,25.3,2.3,-25.8,25.5,2.3,-25.6,5.73,2.43,-27.3,30.4
2012-12-31 02:17:00,0.0,1.9089,0.0009,401.88,0.47,27.6,27.6,138.06,31.13,24.65,36.41,0.04,-272.75,-272.75,-45,559,-952,25.3,2.3,-25.8,25.5,2.3,-25.6,5.73,2.43,-27.3,30.4
2012-12-31 02:18:00,0.0,1.9092,0.0009,401.78,0.39,22.6,25.7,138.06,31.13,24.65,36.42,0.04,-272.75,-272.75,-46,559,-952,25.3,2.3,-25.8,25.5,2.3,-25.5,5.73,2.43,-27.2,30.4